IRIDIUM 33 DEB, 35918

Orbit data source: Space-Track

IRIDIUM 33 DEB, 35918 is space debris in LEO originally from a launch on Sun, 14 Sep 1997 UTC launched from the Tyuratam Missile And Space Complex (TTMTR). The debris from Iridium 33, an American commercial communications satellite, has been tracked extensively since its accidental collision with the defunct Russian satellite Cosmos 2251 in 2009. This event, occurring at high speed in low Earth orbit (LEO), generated thousands of pieces of space debris, significantly increasing the risk of further collisions. The Iridium 33 debris cloud has impacted space traffic management and orbital debris mitigation strategies, making it a subject of ongoing study in space situational awareness.

Loading next visibility...
Identifier
35918, 1997-051UB
Orbit
LEO
Country
Flag of USUS
Related business
Manufacturer
Unknown
Mission
Spacecraft
Bus & Motor
Unknown
Mass
Unknown
Launch date (UTC)
1997-09-14 (28 years ago)
Launch vehicle
Unknown
Launch site
Tyuratam Missile And Space Complex (TTMTR)
Object type
Payload
Rocket body
Debris
Shape & HBR
Unknown shape, 0.1 m
Radar Cross Section
Small (<0.1 m²)

Expand to show TLE details & history
Last TLE update: 2 days ago

TLE from 2 days ago
0 IRIDIUM 33 DEB
1 35918U 97051UB  25350.52753681  .00003111  00000-0  77323-3 0  9991
2 35918  86.4012  74.1902 0027979 157.3980 265.1439 14.51278140852625
Epoch: 2025-12-16T12:39Z
TLE epoch observation values (Epoch: 2025-12-16T12:39:39.180Z)
Latitude
62.10082°
Longitude
165.65204°
Altitude
733.948 km
Speed
7.493 km/s
True Right ascension
05h 23m 54s
True Declination
61° 57' 28"
Sunlit
Object was in full shadow at epoch
Visualization orbit readout
Latitude
Unknown
Longitude
Unknown
Altitude
Unknown
Speed
Unknown
Apparent Right ascension
Unknown
Apparent Declination
Unknown
Sunlit
N/A
Visualization observer readout
Local Sidereal Time
05:21:21
Azimuth
Unknown
Elevation
Unknown
Doppler factor
Unknown
Orbital elements
Apogee altitude
738.273 km
Perigee altitude
698.562 km
Semi-major axis
7,096.554 km
Eccentricity
0.0028
Inclination
86.4012°
RAAN
74.1902°
Arg. of periapsis
157.398°
True anomaly
264.82453°
Mean anomaly
265.1439°
Eccentric anomaly
264.98421°
Mean motion
3.63055 °/min
Orbital period
99.16 mins
BSTAR
0.00077323
Loading maneuver chart data...
Computing Atmospheric mass density...

Documentation

Showing up to 5 results
|